CPA831 KJFK-VHHH

Flight info

Callsign CPA831
Flight time N/A
Altitude 34000
Route GREKI DCT JUDDS DCT CAM DCT YVO DCT 50N080W 55N084W 59N090W 63N100W 65N110W 66N120W 67N130W DCT GOATS DCT BTT NCA30 OME R338 NATES/N0494F350 R220 NYMPH/N0493F360 R220 NUBDA/N0495F370 R220 NANAC/N0491F380 R220 IXE Y88 NAKTU Y12 KOHWA Y54 TURFY Y24 KOSHI Y50 IGMON A1 OSTAR/N0491F400 A1 APU DCT MKG A1 ELATO V522 ABBEY
Aircraft A35K/H-SDE2E3GHIJ3J4J5LM1ORWXY/LB1D1

Departure

Time 2026-05-04 20:22
Airport John F. Kennedy International Airport (KJFK)

Arrival

Time N/A
Airport Hong Kong International Airport (VHHH)
Time Latitude Longitude Altitude Speed Heading
2026-05-04 19:50 40.64938 -73.78982 30 ft 0 kts 199°
2026-05-04 20:07 40.64941 -73.78981 29 ft 2 kts 199°
2026-05-04 20:07 40.64958 -73.78973 25 ft 3 kts 199°
2026-05-04 20:08 40.64977 -73.78965 29 ft 3 kts 199°
2026-05-04 20:08 40.64995 -73.78957 28 ft 3 kts 192°
2026-05-04 20:08 40.65011 -73.78956 29 ft 3 kts 141°
2026-05-04 20:08 40.65018 -73.78971 28 ft 3 kts 78°
2026-05-04 20:09 40.65015 -73.78985 27 ft 1 kts 61°
2026-05-04 20:09 40.65006 -73.79006 29 ft 3 kts 61°
2026-05-04 20:09 40.64999 -73.79022 27 ft 1 kts 61°
2026-05-04 20:09 40.64999 -73.79023 27 ft 0 kts 61°
2026-05-04 20:13 40.65000 -73.79021 27 ft 1 kts 61°
2026-05-04 20:13 40.65007 -73.79001 27 ft 4 kts 63°
2026-05-04 20:13 40.65028 -73.78956 28 ft 7 kts 50°
2026-05-04 20:14 40.65080 -73.78918 29 ft 10 kts 14°
2026-05-04 20:14 40.65159 -73.78906 29 ft 13 kts
2026-05-04 20:14 40.65218 -73.78824 29 ft 15 kts 72°
2026-05-04 20:14 40.65261 -73.78700 31 ft 13 kts 60°
2026-05-04 20:15 40.65303 -73.78600 30 ft 15 kts 61°
2026-05-04 20:15 40.65352 -73.78471 29 ft 16 kts 66°
2026-05-04 20:15 40.65406 -73.78353 29 ft 15 kts 57°
2026-05-04 20:15 40.65466 -73.78222 26 ft 18 kts 60°
2026-05-04 20:16 40.65473 -73.78076 28 ft 16 kts 113°
2026-05-04 20:16 40.65420 -73.77956 27 ft 15 kts 121°
2026-05-04 20:16 40.65384 -73.77876 32 ft 16 kts 121°
2026-05-04 20:16 40.65328 -73.77752 30 ft 15 kts 121°
2026-05-04 20:17 40.65274 -73.77633 28 ft 15 kts 121°
2026-05-04 20:17 40.65217 -73.77508 28 ft 16 kts 121°
2026-05-04 20:17 40.65164 -73.77392 31 ft 14 kts 121°
2026-05-04 20:17 40.65116 -73.77285 31 ft 13 kts 121°
2026-05-04 20:18 40.65070 -73.77184 31 ft 12 kts 121°
2026-05-04 20:18 40.65028 -73.77091 27 ft 11 kts 121°
2026-05-04 20:18 40.64988 -73.77004 27 ft 12 kts 121°
2026-05-04 20:18 40.64946 -73.76910 27 ft 12 kts 121°
2026-05-04 20:19 40.64905 -73.76820 27 ft 11 kts 121°
2026-05-04 20:19 40.64878 -73.76733 27 ft 10 kts 85°
2026-05-04 20:19 40.64919 -73.76667 27 ft 10 kts 35°
2026-05-04 20:19 40.64978 -73.76620 27 ft 10 kts 30°
2026-05-04 20:20 40.65039 -73.76573 27 ft 11 kts 30°
2026-05-04 20:20 40.65092 -73.76502 27 ft 12 kts 77°
2026-05-04 20:20 40.65069 -73.76403 29 ft 11 kts 121°
2026-05-04 20:20 40.65007 -73.76378 28 ft 9 kts 192°
2026-05-04 20:21 40.64949 -73.76414 28 ft 9 kts 210°
2026-05-04 20:21 40.64882 -73.76465 27 ft 22 kts 210°
2026-05-04 20:21 40.63942 -73.77200 28 ft 130 kts 210°
2026-05-04 20:22 40.63050 -73.77898 221 ft 155 kts 204°
2026-05-04 20:22 40.62119 -73.78532 816 ft 153 kts 201°
2026-05-04 20:22 40.61122 -73.79173 1117 ft 172 kts 212°
2026-05-04 20:22 40.60141 -73.80277 1356 ft 196 kts 232°
2026-05-04 20:23 40.59686 -73.81984 1567 ft 214 kts 269°
2026-05-04 20:23 40.60231 -73.83873 1695 ft 238 kts 309°
2026-05-04 20:23 40.61696 -73.85032 1832 ft 261 kts 346°
2026-05-04 20:23 40.63526 -73.84845 2187 ft 273 kts 20°
2026-05-04 20:24 40.65203 -73.83634 2654 ft 278 kts 34°
2026-05-04 20:24 40.66760 -73.82107 3214 ft 280 kts 36°
2026-05-04 20:24 40.68337 -73.80583 3713 ft 281 kts 32°
2026-05-04 20:24 40.69978 -73.79181 4177 ft 282 kts 28°
2026-05-04 20:25 40.71699 -73.77906 4634 ft 284 kts 25°
2026-05-04 20:25 40.73471 -73.76736 5039 ft 286 kts 22°
2026-05-04 20:25 40.75281 -73.75626 5517 ft 288 kts 21°